{"data":{"norad_id":66725,"intl_designator":"2025-276BM","name":"FLOCK 4H-22","alt_names":[],"object_type":"PAYLOAD","status":"ACTIVE","operator":null,"country":"US","launch_date":"2025-11-28","launch_site_code":"AFWTR","launch_vehicle":null,"mission":null,"orbit_class":"UNKNOWN","rcs_meters":null,"size_class":null,"mass_kg":null,"dimensions":null,"purposes":["earth_obs"],"wikipedia_slug":null,"has_3d_model":false,"image_url":null,"decayed_at":null,"tle_current":{"epoch":"2026-05-25T03:24:00.861696Z","epoch_age_seconds":62533,"freshness":"FRESH","line1":"1 66725U 25276BM  26145.14167664  .00006144  00000+0  28964-3 0  9997","line2":"2 66725  97.4177 219.0368 0004319 106.8726 253.2982 15.19843854 26927","mean_motion":15.19843854,"eccentricity":0.0004319,"inclination_deg":97.4177,"raan_deg":219.0368,"arg_perigee_deg":106.8726,"mean_anomaly_deg":253.2982,"bstar":0.00028964,"rev_number":2692,"period_min":94.746575196533,"perigee_km":503.33871034755,"apogee_km":509.28549748351,"semimajor_km":6884.4491039155,"source":"CELESTRAK","updated_at":"2026-05-25T13:38:13.369736Z"}}}